TAM3446 SBSP-SBRJ

Flight info

Callsign TAM3446
Flight time 0h 39m
Altitude 25000
Route NIBRU UZ171 KEVUN
Aircraft A320/M-SDE3FGHIRWY/LB1

Departure

Time 2026-05-04 22:12
Airport Congonhas–Deputado Freitas Nobre Airport (SBSP)

Arrival

Time 2026-05-04 22:51
Airport Santos Dumont Airport (SBRJ)
Time Latitude Longitude Altitude Speed Heading
2026-05-04 21:39 -23.62783 -46.65779 2601 ft 0 kts 237°
2026-05-04 21:53 -23.62783 -46.65778 2601 ft 0 kts 237°
2026-05-04 22:03 -23.62780 -46.65774 2601 ft 4 kts 239°
2026-05-04 22:03 -23.62771 -46.65748 2601 ft 4 kts 272°
2026-05-04 22:03 -23.62779 -46.65725 2601 ft 3 kts 325°
2026-05-04 22:04 -23.62781 -46.65723 2601 ft 0 kts 327°
2026-05-04 22:08 -23.62780 -46.65724 2601 ft 1 kts 327°
2026-05-04 22:08 -23.62770 -46.65731 2601 ft 3 kts 327°
2026-05-04 22:09 -23.62739 -46.65750 2601 ft 7 kts 338°
2026-05-04 22:09 -23.62684 -46.65770 2601 ft 10 kts 343°
2026-05-04 22:09 -23.62611 -46.65795 2602 ft 12 kts 335°
2026-05-04 22:09 -23.62528 -46.65850 2602 ft 15 kts 328°
2026-05-04 22:10 -23.62427 -46.65920 2601 ft 19 kts 327°
2026-05-04 22:10 -23.62308 -46.66003 2600 ft 22 kts 327°
2026-05-04 22:10 -23.62192 -46.66075 2599 ft 13 kts 329°
2026-05-04 22:10 -23.62112 -46.66129 2590 ft 14 kts 330°
2026-05-04 22:11 -23.62054 -46.66082 2592 ft 10 kts 110°
2026-05-04 22:11 -23.62101 -46.66039 2595 ft 10 kts 143°
2026-05-04 22:11 -23.62329 -46.65881 2601 ft 81 kts 148°
2026-05-04 22:11 -23.63025 -46.65400 2613 ft 153 kts 147°
2026-05-04 22:12 -23.64004 -46.64718 3121 ft 176 kts 149°
2026-05-04 22:12 -23.65076 -46.63952 3912 ft 185 kts 139°
2026-05-04 22:12 -23.65844 -46.62842 4579 ft 188 kts 120°
2026-05-04 22:12 -23.66469 -46.61498 4830 ft 210 kts 115°
2026-05-04 22:13 -23.67124 -46.59975 5055 ft 235 kts 115°
2026-05-04 22:13 -23.67862 -46.58281 5400 ft 260 kts 116°
2026-05-04 22:13 -23.68684 -46.56447 5997 ft 275 kts 116°
2026-05-04 22:13 -23.69554 -46.54564 6839 ft 280 kts 117°
2026-05-04 22:14 -23.70453 -46.52660 7720 ft 284 kts 117°
2026-05-04 22:14 -23.71267 -46.50679 8562 ft 288 kts 108°
2026-05-04 22:14 -23.71691 -46.48530 9408 ft 292 kts 95°
2026-05-04 22:14 -23.71670 -46.46305 10232 ft 296 kts 82°
2026-05-04 22:15 -23.71353 -46.44017 10647 ft 316 kts 81°
2026-05-04 22:15 -23.71002 -46.41574 11090 ft 332 kts 81°
2026-05-04 22:15 -23.70641 -46.39061 11808 ft 338 kts 81°
2026-05-04 22:15 -23.70276 -46.36511 12564 ft 342 kts 81°
2026-05-04 22:16 -23.69907 -46.33930 13300 ft 346 kts 81°
2026-05-04 22:16 -23.69535 -46.31320 14018 ft 350 kts 81°
2026-05-04 22:16 -23.69159 -46.28684 14713 ft 353 kts 81°
2026-05-04 22:16 -23.68776 -46.26019 15383 ft 357 kts 81°
2026-05-04 22:17 -23.68389 -46.23335 16036 ft 361 kts 81°
2026-05-04 22:17 -23.67999 -46.20618 16677 ft 364 kts 81°
2026-05-04 22:17 -23.67605 -46.17874 17302 ft 368 kts 81°
2026-05-04 22:17 -23.67207 -46.15106 17910 ft 371 kts 81°
2026-05-04 22:18 -23.66804 -46.12315 18513 ft 374 kts 81°
2026-05-04 22:18 -23.66400 -46.09494 19101 ft 378 kts 81°
2026-05-04 22:18 -23.65996 -46.06655 19671 ft 381 kts 81°
2026-05-04 22:18 -23.65584 -46.03784 20236 ft 384 kts 81°
2026-05-04 22:19 -23.65168 -46.00896 20777 ft 388 kts 81°
2026-05-04 22:19 -23.64747 -45.97983 21309 ft 391 kts 81°
2026-05-04 22:19 -23.64321 -45.95040 21818 ft 394 kts 81°
2026-05-04 22:19 -23.63893 -45.92080 22313 ft 397 kts 81°
2026-05-04 22:20 -23.63461 -45.89098 22794 ft 400 kts 81°
2026-05-04 22:20 -23.63028 -45.86095 23264 ft 403 kts 81°
2026-05-04 22:20 -23.62591 -45.83069 23736 ft 405 kts 81°
2026-05-04 22:20 -23.62152 -45.80023 24179 ft 408 kts 81°
2026-05-04 22:21 -23.61710 -45.76952 24611 ft 411 kts 81°
2026-05-04 22:21 -23.61264 -45.73862 25031 ft 414 kts 81°
2026-05-04 22:21 -23.60812 -45.70753 25188 ft 414 kts 81°
2026-05-04 22:21 -23.60362 -45.67693 25220 ft 405 kts 81°
2026-05-04 22:22 -23.59920 -45.64681 25219 ft 401 kts 81°
2026-05-04 22:22 -23.59479 -45.61678 25223 ft 400 kts 81°
2026-05-04 22:22 -23.59041 -45.58681 25219 ft 400 kts 81°
2026-05-04 22:22 -23.58602 -45.55688 25222 ft 400 kts 81°
2026-05-04 22:23 -23.58167 -45.52734 25220 ft 400 kts 81°
2026-05-04 22:23 -23.57719 -45.49694 25219 ft 400 kts 81°
2026-05-04 22:23 -23.57282 -45.46740 25219 ft 400 kts 80°
2026-05-04 22:23 -23.56758 -45.43764 25221 ft 400 kts 78°
2026-05-04 22:24 -23.56147 -45.40809 25218 ft 400 kts 76°
2026-05-04 22:24 -23.55494 -45.37867 25217 ft 400 kts 76°
2026-05-04 22:24 -23.54830 -45.34927 25217 ft 400 kts 76°
2026-05-04 22:24 -23.54172 -45.31985 25216 ft 399 kts 76°
2026-05-04 22:25 -23.53527 -45.29043 25215 ft 399 kts 76°
2026-05-04 22:25 -23.52892 -45.26097 25214 ft 399 kts 77°
2026-05-04 22:25 -23.52265 -45.23145 25214 ft 399 kts 77°
2026-05-04 22:25 -23.51643 -45.20198 25211 ft 399 kts 77°
2026-05-04 22:26 -23.51022 -45.17250 25211 ft 399 kts 77°
2026-05-04 22:26 -23.50398 -45.14300 25211 ft 399 kts 77°
2026-05-04 22:26 -23.49771 -45.11350 25211 ft 399 kts 77°
2026-05-04 22:26 -23.49142 -45.08407 25213 ft 400 kts 76°
2026-05-04 22:27 -23.48508 -45.05456 25216 ft 400 kts 76°
2026-05-04 22:27 -23.47874 -45.02509 25215 ft 400 kts 76°
2026-05-04 22:27 -23.47240 -44.99562 25213 ft 400 kts 76°
2026-05-04 22:27 -23.46607 -44.96615 25214 ft 400 kts 76°
2026-05-04 22:28 -23.45970 -44.93671 25212 ft 399 kts 76°
2026-05-04 22:28 -23.45324 -44.90729 25212 ft 399 kts 76°
2026-05-04 22:28 -23.44671 -44.87788 25215 ft 402 kts 76°
2026-05-04 22:28 -23.44003 -44.84787 24794 ft 412 kts 76°
2026-05-04 22:29 -23.43326 -44.81746 24083 ft 413 kts 76°
2026-05-04 22:29 -23.42654 -44.78723 23566 ft 408 kts 76°
2026-05-04 22:29 -23.41989 -44.75744 23076 ft 403 kts 76°
2026-05-04 22:29 -23.41328 -44.72796 22576 ft 399 kts 76°
2026-05-04 22:30 -23.40673 -44.69879 22085 ft 395 kts 76°
2026-05-04 22:30 -23.40242 -44.67961 21750 ft 393 kts 76°
2026-05-04 22:30 -23.39599 -44.65081 21255 ft 390 kts 76°
2026-05-04 22:30 -23.38962 -44.62225 20755 ft 387 kts 76°
2026-05-04 22:31 -23.38329 -44.59384 20256 ft 385 kts 76°
2026-05-04 22:31 -23.37699 -44.56567 19751 ft 382 kts 76°
2026-05-04 22:31 -23.37071 -44.53768 19267 ft 380 kts 76°
2026-05-04 22:31 -23.36446 -44.50987 18781 ft 377 kts 76°
2026-05-04 22:32 -23.35821 -44.48218 18298 ft 375 kts 76°
2026-05-04 22:32 -23.35203 -44.45471 17841 ft 372 kts 76°
2026-05-04 22:32 -23.34568 -44.42757 17401 ft 369 kts 72°
2026-05-04 22:32 -23.33602 -44.40180 16950 ft 365 kts 64°
2026-05-04 22:33 -23.32526 -44.37693 16529 ft 363 kts 64°
2026-05-04 22:33 -23.31461 -44.35216 16107 ft 360 kts 64°
2026-05-04 22:33 -23.30409 -44.32762 15686 ft 357 kts 64°
2026-05-04 22:33 -23.29366 -44.30323 15251 ft 354 kts 64°
2026-05-04 22:34 -23.28329 -44.27903 14822 ft 351 kts 64°
2026-05-04 22:34 -23.27296 -44.25507 14399 ft 349 kts 64°
2026-05-04 22:34 -23.26267 -44.23127 13974 ft 347 kts 64°
2026-05-04 22:34 -23.25247 -44.20761 13547 ft 344 kts 64°
2026-05-04 22:35 -23.24237 -44.18413 13126 ft 342 kts 64°
2026-05-04 22:35 -23.23232 -44.16080 12693 ft 340 kts 64°
2026-05-04 22:35 -23.22233 -44.13757 12263 ft 338 kts 64°
2026-05-04 22:35 -23.21242 -44.11454 11828 ft 335 kts 64°
2026-05-04 22:36 -23.20253 -44.09166 11395 ft 333 kts 64°
2026-05-04 22:36 -23.19263 -44.06904 11064 ft 328 kts 64°
2026-05-04 22:36 -23.18277 -44.04734 10907 ft 321 kts 63°
2026-05-04 22:36 -23.17276 -44.02575 10721 ft 319 kts 63°
2026-05-04 22:37 -23.16274 -44.00425 10533 ft 318 kts 63°
2026-05-04 22:37 -23.15297 -43.98302 10376 ft 309 kts 64°
2026-05-04 22:37 -23.14389 -43.96229 10185 ft 300 kts 64°
2026-05-04 22:37 -23.13521 -43.94195 10035 ft 295 kts 65°
2026-05-04 22:38 -23.12668 -43.92169 9934 ft 295 kts 65°
2026-05-04 22:38 -23.11817 -43.90147 9801 ft 294 kts 65°
2026-05-04 22:38 -23.10963 -43.88132 9635 ft 293 kts 65°
2026-05-04 22:38 -23.10108 -43.86124 9483 ft 292 kts 64°
2026-05-04 22:39 -23.09253 -43.84123 9328 ft 292 kts 65°
2026-05-04 22:39 -23.08401 -43.82128 9170 ft 291 kts 64°
2026-05-04 22:39 -23.07548 -43.80136 9022 ft 291 kts 64°
2026-05-04 22:39 -23.06694 -43.78148 8855 ft 290 kts 64°
2026-05-04 22:40 -23.05844 -43.76166 8703 ft 289 kts 64°
2026-05-04 22:40 -23.04996 -43.74188 8545 ft 288 kts 64°
2026-05-04 22:40 -23.04151 -43.72217 8394 ft 288 kts 64°
2026-05-04 22:40 -23.03304 -43.70248 8238 ft 287 kts 64°
2026-05-04 22:41 -23.02455 -43.68287 7996 ft 286 kts 64°
2026-05-04 22:41 -23.01604 -43.66340 7725 ft 285 kts 64°
2026-05-04 22:41 -23.00756 -43.64402 7460 ft 284 kts 64°
2026-05-04 22:41 -22.99909 -43.62468 7199 ft 283 kts 64°
2026-05-04 22:42 -22.99065 -43.60547 7034 ft 282 kts 64°
2026-05-04 22:42 -22.98228 -43.58645 6833 ft 277 kts 64°
2026-05-04 22:42 -22.97407 -43.56785 6602 ft 269 kts 64°
2026-05-04 22:42 -22.96618 -43.54991 6435 ft 259 kts 64°
2026-05-04 22:43 -22.95861 -43.53262 6287 ft 248 kts 64°
2026-05-04 22:43 -22.95133 -43.51607 6143 ft 239 kts 64°
2026-05-04 22:43 -22.94433 -43.50008 5946 ft 233 kts 64°
2026-05-04 22:43 -22.93758 -43.48423 5706 ft 230 kts 65°
2026-05-04 22:44 -22.93098 -43.46863 5470 ft 226 kts 65°
2026-05-04 22:44 -22.92451 -43.45332 5240 ft 221 kts 65°
2026-05-04 22:44 -22.91816 -43.43828 5013 ft 218 kts 65°
2026-05-04 22:44 -22.91191 -43.42347 4783 ft 214 kts 65°
2026-05-04 22:45 -22.90573 -43.40883 4515 ft 213 kts 65°
2026-05-04 22:45 -22.89349 -43.37989 3999 ft 209 kts 65°
2026-05-04 22:45 -22.88743 -43.36557 3764 ft 208 kts 65°
2026-05-04 22:46 -22.88162 -43.35128 3513 ft 208 kts 70°
2026-05-04 22:46 -22.87681 -43.33647 3257 ft 209 kts 70°
2026-05-04 22:46 -22.87210 -43.32177 3009 ft 209 kts 70°
2026-05-04 22:46 -22.86742 -43.30714 2775 ft 201 kts 70°
2026-05-04 22:47 -22.86301 -43.29332 2518 ft 188 kts 70°
2026-05-04 22:47 -22.85885 -43.28035 2298 ft 176 kts 70°
2026-05-04 22:47 -22.85531 -43.26799 2096 ft 167 kts 81°
2026-05-04 22:47 -22.85576 -43.25604 1902 ft 154 kts 100°
2026-05-04 22:48 -22.85740 -43.24471 1691 ft 150 kts 99°
2026-05-04 22:48 -22.85897 -43.23368 1478 ft 148 kts 99°
2026-05-04 22:48 -22.86051 -43.22276 1295 ft 143 kts 100°
2026-05-04 22:48 -22.86198 -43.21236 1080 ft 137 kts 99°
2026-05-04 22:49 -22.86343 -43.20220 885 ft 135 kts 98°
2026-05-04 22:49 -22.86487 -43.19218 695 ft 134 kts 98°
2026-05-04 22:49 -22.86686 -43.18228 537 ft 135 kts 105°
2026-05-04 22:49 -22.87144 -43.17352 561 ft 136 kts 130°
2026-05-04 22:50 -22.87908 -43.16717 499 ft 141 kts 150°
2026-05-04 22:50 -22.88844 -43.16421 376 ft 142 kts 173°
2026-05-04 22:50 -22.89833 -43.16384 179 ft 141 kts 172°
2026-05-04 22:50 -22.90807 -43.16287 27 ft 135 kts 184°
2026-05-04 22:51 -22.91458 -43.16290 19 ft 58 kts 180°
2026-05-04 22:51 -22.91755 -43.16276 13 ft 7 kts 170°
2026-05-04 22:51 -22.91791 -43.16269 11 ft 2 kts 170°